Time,TemperatureF,DewpointF,PressureIn,WindDirection,WindDirectionDegrees,WindSpeedMPH,WindSpeedGustMPH,Humidity,HourlyPrecipIn,Conditions,Clouds,dailyrainin,SolarRadiationWatts/m^2,SoftwareType,DateUTC
2013-01-21 02:00:00,38.0,26.0,30.17,NNE,21,5.0,-999.0,62,0.00,,,-99.99,-2.400000,,2013-01-21 10:00:00,
2013-01-21 02:23:00,38.0,26.0,30.17,NNE,21,5.0,-999.0,62,0.00,,,-99.99,-2.400000,,2013-01-21 10:23:00,
2013-01-21 02:33:00,38.0,26.0,30.17,NNE,21,5.0,-999.0,62,0.00,,,-99.99,-2.400000,,2013-01-21 10:33:00,
2013-01-21 02:43:00,38.0,26.0,30.17,NNE,21,5.0,-999.0,62,0.00,,,-99.99,-2.400000,,2013-01-21 10:43:00,
2013-01-21 02:52:00,38.0,26.0,30.17,NNE,21,5.0,-999.0,62,0.00,,,-99.99,-2.400000,,2013-01-21 10:52:00,
2013-01-21 03:00:00,37.0,26.0,30.15,North,350,3.0,-999.0,63,0.00,,,-99.99,-2.700000,,2013-01-21 11:00:00,
2013-01-21 03:23:00,37.0,26.0,30.15,North,350,3.0,-999.0,63,0.00,,,-99.99,-2.700000,,2013-01-21 11:23:00,
2013-01-21 03:33:00,37.0,26.0,30.15,North,350,3.0,-999.0,63,0.00,,,-99.99,-2.700000,,2013-01-21 11:33:00,
2013-01-21 03:43:00,37.0,26.0,30.15,North,350,3.0,-999.0,63,0.00,,,-99.99,-2.700000,,2013-01-21 11:43:00,
2013-01-21 03:53:00,37.0,26.0,30.15,North,350,3.0,-999.0,63,0.00,,,-99.99,-2.700000,,2013-01-21 11:53:00,
2013-01-21 04:00:00,38.0,24.0,30.14,North,354,4.0,-999.0,57,0.00,,,-99.99,-2.300000,,2013-01-21 12:00:00,
2013-01-21 04:23:00,38.0,24.0,30.14,North,354,4.0,-999.0,57,0.00,,,-99.99,-2.300000,,2013-01-21 12:23:00,
2013-01-21 04:33:00,38.0,24.0,30.14,North,354,4.0,-999.0,57,0.00,,,-99.99,-2.300000,,2013-01-21 12:33:00,
2013-01-21 04:43:00,38.0,24.0,30.14,North,354,4.0,-999.0,57,0.00,,,-99.99,-2.300000,,2013-01-21 12:43:00,
2013-01-21 04:53:00,38.0,24.0,30.14,North,354,4.0,-999.0,57,0.00,,,-99.99,-2.300000,,2013-01-21 12:53:00,
2013-01-21 05:00:00,39.0,22.0,30.13,North,8,4.0,-999.0,51,0.00,,,-99.99,-2.800000,,2013-01-21 13:00:00,
2013-01-21 05:23:00,39.0,22.0,30.13,North,8,4.0,-999.0,51,0.00,,,-99.99,-2.800000,,2013-01-21 13:23:00,
2013-01-21 05:33:00,39.0,22.0,30.13,North,8,4.0,-999.0,51,0.00,,,-99.99,-2.800000,,2013-01-21 13:33:00,
2013-01-21 05:43:00,39.0,22.0,30.13,North,8,4.0,-999.0,51,0.00,,,-99.99,-2.800000,,2013-01-21 13:43:00,
2013-01-21 05:53:00,39.0,22.0,30.13,North,8,4.0,-999.0,51,0.00,,,-99.99,-2.800000,,2013-01-21 13:53:00,
2013-01-21 06:00:00,40.0,22.0,30.13,NNW,328,3.0,-999.0,49,0.00,,,-99.99,-2.200000,,2013-01-21 14:00:00,
2013-01-21 06:23:00,40.0,22.0,30.13,NNW,328,3.0,-999.0,49,0.00,,,-99.99,-2.200000,,2013-01-21 14:23:00,
2013-01-21 06:33:00,40.0,22.0,30.13,NNW,328,3.0,-999.0,49,0.00,,,-99.99,-2.200000,,2013-01-21 14:33:00,
2013-01-21 06:43:00,40.0,22.0,30.13,NNW,328,3.0,-999.0,49,0.00,,,-99.99,-2.200000,,2013-01-21 14:43:00,
2013-01-21 06:53:00,40.0,22.0,30.13,NNW,328,3.0,-999.0,49,0.00,,,-99.99,-2.200000,,2013-01-21 14:53:00,
2013-01-21 07:00:00,39.0,21.0,30.13,North,3,3.0,-999.0,47,0.00,,,-99.99,-2.500000,,2013-01-21 15:00:00,
2013-01-21 07:23:00,39.0,21.0,30.13,North,3,3.0,-999.0,47,0.00,,,-99.99,-2.500000,,2013-01-21 15:23:00,
2013-01-21 07:33:00,39.0,21.0,30.13,North,3,3.0,-999.0,47,0.00,,,-99.99,-2.500000,,2013-01-21 15:33:00,
2013-01-21 07:43:00,39.0,21.0,30.13,North,3,3.0,-999.0,47,0.00,,,-99.99,-2.500000,,2013-01-21 15:43:00,
2013-01-21 07:53:00,39.0,21.0,30.13,North,3,3.0,-999.0,47,0.00,,,-99.99,-2.500000,,2013-01-21 15:53:00,
2013-01-21 08:00:00,39.0,22.0,30.12,NW,321,3.0,-999.0,49,0.00,,,-99.99,6.200000,,2013-01-21 16:00:00,
2013-01-21 08:24:00,39.0,22.0,30.12,NW,321,3.0,-999.0,49,0.00,,,-99.99,6.200000,,2013-01-21 16:24:00,
2013-01-21 08:33:00,39.0,22.0,30.12,NW,321,3.0,-999.0,49,0.00,,,-99.99,6.200000,,2013-01-21 16:33:00,
2013-01-21 08:43:00,39.0,22.0,30.12,NW,321,3.0,-999.0,49,0.00,,,-99.99,6.200000,,2013-01-21 16:43:00,
2013-01-21 08:53:00,39.0,22.0,30.12,NW,321,3.0,-999.0,49,0.00,,,-99.99,6.200000,,2013-01-21 16:53:00,
2013-01-21 10:00:00,52.0,25.0,30.17,NNE,27,2.0,-999.0,35,0.00,,,-99.99,337.600006,,2013-01-21 18:00:00,
2013-01-21 10:23:00,52.0,25.0,30.17,NNE,27,2.0,-999.0,35,0.00,,,-99.99,337.600006,,2013-01-21 18:23:00,
2013-01-21 10:33:00,52.0,25.0,30.17,NNE,27,2.0,-999.0,35,0.00,,,-99.99,337.600006,,2013-01-21 18:33:00,
2013-01-21 10:43:00,52.0,25.0,30.17,NNE,27,2.0,-999.0,35,0.00,,,-99.99,337.600006,,2013-01-21 18:43:00,
2013-01-21 10:53:00,52.0,25.0,30.17,NNE,27,2.0,-999.0,35,0.00,,,-99.99,337.600006,,2013-01-21 18:53:00,
2013-01-21 14:00:00,63.0,30.0,30.14,SSE,161,2.0,-999.0,29,0.00,,,-99.99,404.200012,,2013-01-21 22:00:00,
2013-01-21 14:23:00,63.0,30.0,30.14,SSE,161,2.0,-999.0,29,0.00,,,-99.99,404.200012,,2013-01-21 22:23:00,
2013-01-21 14:33:00,63.0,30.0,30.14,SSE,161,2.0,-999.0,29,0.00,,,-99.99,404.200012,,2013-01-21 22:33:00,
2013-01-21 14:43:00,63.0,30.0,30.14,SSE,161,2.0,-999.0,29,0.00,,,-99.99,404.200012,,2013-01-21 22:43:00,
2013-01-21 14:53:00,63.0,30.0,30.14,SSE,161,2.0,-999.0,29,0.00,,,-99.99,404.200012,,2013-01-21 22:53:00,
2013-01-21 15:00:00,61.0,29.0,30.15,SSW,211,3.0,-999.0,30,0.00,,,-99.99,222.500000,,2013-01-21 23:00:00,
2013-01-21 15:23:00,61.0,29.0,30.15,SSW,211,3.0,-999.0,30,0.00,,,-99.99,222.500000,,2013-01-21 23:23:00,
2013-01-21 15:33:00,61.0,29.0,30.15,SSW,211,3.0,-999.0,30,0.00,,,-99.99,222.500000,,2013-01-21 23:33:00,
2013-01-21 15:43:00,61.0,29.0,30.15,SSW,211,3.0,-999.0,30,0.00,,,-99.99,222.500000,,2013-01-21 23:43:00,
2013-01-21 15:53:00,61.0,29.0,30.15,SSW,211,3.0,-999.0,30,0.00,,,-99.99,222.500000,,2013-01-21 23:53:00,
2013-01-21 16:00:00,57.0,32.0,30.14,SW,226,0.0,-999.0,38,0.00,,,-99.99,43.700001,,2013-01-22 00:00:00,
2013-01-21 16:23:00,57.0,32.0,30.14,SW,226,0.0,-999.0,38,0.00,,,-99.99,43.700001,,2013-01-22 00:23:00,
2013-01-21 16:33:00,57.0,32.0,30.14,SW,226,0.0,-999.0,38,0.00,,,-99.99,43.700001,,2013-01-22 00:33:00,
2013-01-21 16:43:00,57.0,32.0,30.14,SW,226,0.0,-999.0,38,0.00,,,-99.99,43.700001,,2013-01-22 00:43:00,
2013-01-21 16:53:00,57.0,32.0,30.14,SW,226,0.0,-999.0,38,0.00,,,-99.99,43.700001,,2013-01-22 00:53:00,
2013-01-21 19:22:00,43.0,34.0,30.11,SW,220,1.0,-999.0,69,0.00,,,-99.99,-1.000000,,2013-01-22 03:22:00,
2013-01-21 19:33:00,43.0,34.0,30.11,SW,220,1.0,-999.0,69,0.00,,,-99.99,-1.000000,,2013-01-22 03:33:00,
2013-01-21 20:22:00,42.0,34.0,30.11,North,352,2.0,-999.0,73,0.00,,,-99.99,-1.200000,,2013-01-22 04:22:00,
2013-01-21 20:33:00,42.0,34.0,30.11,North,352,2.0,-999.0,73,0.00,,,-99.99,-1.200000,,2013-01-22 04:33:00,
2013-01-21 22:22:00,37.0,31.0,30.13,North,0,0.0,-999.0,77,0.00,,,-99.99,-2.900000,,2013-01-22 06:22:00,
2013-01-21 22:33:00,37.0,31.0,30.13,North,0,0.0,-999.0,77,0.00,,,-99.99,-2.900000,,2013-01-22 06:33:00,